一网星座-0224星 (ONEWEB-0224 )

导读

ONEWEB-0224是英国OneWeb星座下的低轨互联网卫星,于2021年5月28日发射入轨。作为全球低轨卫星互联网组网的一员,它属于OneWeb首批648颗卫星计划,单颗重约147.5千克,配备氙气离子推进器与Ku/Ka波段天线,最终运行在1200公里近地轨道。依托低轨布局,它可为航空、海运、偏远地区提供高速低延迟网络服务,助力缩小全球数字鸿沟,与SpaceX星链共同推动卫星互联网产业发展。

Basic Information
目录编号:
48794
目录名称:
ONEWEB-0224
国际标识:
2021-045AD
轨道中心:
EARTH
卫星名称:
一网星座-0224星
卫星全名:
一网星座-0224星 (ONEWEB-0224 )
卫星状态:
在轨 (已飞行1932 天)
发射日期:
2021-05-28 UTC
国别 :
英国 (GB)
星等 :
--
This satellite is enrolled in the Space Conjunction Data Service (SCDS) and the current flight risk assessment level is: No High Risk
Orbit Information
数据来源 国际轨道数据 AOE轨道数据
星历时间 2026-09-10T20:03:49+0800
1天前
查看轨道信息
2026-09-06T07:00:00+0800
5天前
查看轨道信息
半长轴 7579.91km 7579.9km
偏心率 0.0001378 0.0001783
轨道倾角 87.897° 87.897°
近地点辐角 64.586° 54.699°
升交点赤经 242.214° 243.121°
平近点角 295.541° 35.961°
近地点 1200.728km 1200.411km
远地点 1202.818km 1203.115km
周期 109.460分钟 109.460分钟
每日圈数 13.155482 13.155507
Detailed Information
平衡模式:
三轴稳定
覆盖范围:
全球
运营商:
一网卫星公司
运营商所在国:
英国
制造商(研发单位):
一网卫星公司
制造商所在国:
英国
使用方式:
暂无
Satellite Introduction
OneWeb卫星网络由648颗重约125公斤的微型卫星组成,运行在1200公里的轨道上。 每颗卫星都能够提供至少每秒8千兆位的吞吐量,以使用其高吞吐量的Ku频段有效载荷为家庭和移动平台提供互联网接入。该卫星仍在工作。
2D Orbit Map
3D Orbit Map
Orbit Altitude Analysis Chart
Orbit Inclination Analysis Chart
Orbit Comprehensive Analysis Chart
View Comprehensive Chart
Miss Distance Evolution Trend with All Objects
Collision Probability Evolution Trend with All Objects